• In Netherlands
  • List of Countries
  • For 7 days
  • Water Temperature
  • Satellite Maps
  • Weather Map
  • Weather Widgets
  • user-avatar
    Login

    Hourly Weather Prutz

    Today, 24 May, Thursday

    Time Temperature Precipitation Wind Pressure Humidity
    00:00 +8°C° 0.2 mm 1 mps 634 mmHg 92%
    01:00 +8°C° 0.2 mm 1 mps 634 mmHg 91%
    02:00 +8°C° 0.2 mm 1 mps 634 mmHg 91%
    03:00 +8°C° 0.2 mm 1 mps 634 mmHg 92%
    04:00 +8°C° 0.2 mm 1 mps 634 mmHg 92%
    05:00 +9°C° 0.4 mm 1 mps 634 mmHg 90%
    06:00 +10°C° 0.4 mm 1 mps 635 mmHg 89%
    07:00 +11°C° 0.4 mm 1 mps 635 mmHg 88%
    08:00 +12°C° 0.5 mm 1 mps 635 mmHg 85%
    09:00 +13°C° 0.5 mm 1 mps 636 mmHg 81%
    10:00 +14°C° 0.5 mm 1 mps 636 mmHg 78%
    11:00 +15°C° 0.9 mm 1 mps 636 mmHg 76%
    12:00 +15°C° 0.9 mm 1 mps 636 mmHg 73%
    13:00 +16°C° 0.9 mm 1 mps 636 mmHg 71%
    14:00 +16°C° 1.2 mm 1 mps 636 mmHg 73%
    15:00 +16°C° 1.2 mm 1 mps 636 mmHg 75%
    16:00 +15°C° 1.2 mm 1 mps 635 mmHg 77%
    17:00 +15°C° 1 mm 1 mps 635 mmHg 82%
    18:00 +14°C° 1 mm 1 mps 635 mmHg 86%
    19:00 +13°C° 1 mm 1 mps 635 mmHg 91%
    20:00 +12°C° 0.4 mm 1 mps 635 mmHg 92%
    21:00 +11°C° 0.4 mm 1 mps 635 mmHg 94%
    22:00 +10°C° 0.4 mm 1 mps 635 mmHg 96%
    23:00 +9°C° 0.1 mm 1 mps 635 mmHg 95%

    Tomorrow, 25 May, Friday

    Time Temperature Precipitation Wind Pressure Humidity
    00:00 +9°C° 0.1 mm 1 mps 635 mmHg 95%
    01:00 +8°C° 0.1 mm 1 mps 635 mmHg 94%
    02:00 +8°C° 0 mm 1 mps 634 mmHg 93%
    03:00 +7°C° 0 mm 1 mps 634 mmHg 92%
    04:00 +7°C° 0 mm 1 mps 634 mmHg 92%
    05:00 +9°C° 0 mm 1 mps 634 mmHg 87%
    06:00 +10°C° 0 mm 1 mps 635 mmHg 82%
    07:00 +12°C° 0 mm 1 mps 636 mmHg 77%
    08:00 +14°C° 0 mm 1 mps 636 mmHg 68%
    09:00 +16°C° 0 mm 1 mps 637 mmHg 58%
    10:00 +19°C° 0 mm 1 mps 637 mmHg 48%
    11:00 +20°C° 0 mm 1 mps 637 mmHg 45%
    12:00 +20°C° 0 mm 1 mps 638 mmHg 43%
    13:00 +20°C° 0 mm 2 mps 638 mmHg 40%
    14:00 +20°C° 0 mm 2 mps 637 mmHg 42%
    15:00 +20°C° 0 mm 2 mps 637 mmHg 44%
    16:00 +20°C° 0 mm 2 mps 637 mmHg 46%
    17:00 +18°C° 0.1 mm 2 mps 637 mmHg 56%
    18:00 +17°C° 0.1 mm 2 mps 637 mmHg 65%
    19:00 +15°C° 0.1 mm 2 mps 636 mmHg 74%
    20:00 +14°C° 0.1 mm 1 mps 636 mmHg 79%
    21:00 +12°C° 0.1 mm 1 mps 636 mmHg 84%
    22:00 +11°C° 0.1 mm 1 mps 636 mmHg 90%
    23:00 +11°C° 0 mm 1 mps 636 mmHg 89%

    Day after tomorrow, 26 May, Saturday

    Time Temperature Precipitation Wind Pressure Humidity
    00:00 +10°C° 0 mm 1 mps 636 mmHg 88%
    01:00 +10°C° 0 mm 1 mps 636 mmHg 88%
    02:00 +10°C° 0 mm 1 mps 636 mmHg 87%
    03:00 +10°C° 0 mm 1 mps 636 mmHg 86%
    04:00 +9°C° 0 mm 1 mps 636 mmHg 85%
    05:00 +11°C° 0 mm 1 mps 636 mmHg 79%
    06:00 +13°C° 0 mm 1 mps 637 mmHg 73%
    07:00 +15°C° 0 mm 1 mps 638 mmHg 68%
    08:00 +18°C° 0 mm 1 mps 638 mmHg 59%
    09:00 +20°C° 0 mm 1 mps 639 mmHg 51%
    10:00 +22°C° 0 mm 1 mps 640 mmHg 43%
    11:00 +23°C° 0.1 mm 1 mps 640 mmHg 41%
    12:00 +23°C° 0.1 mm 1 mps 640 mmHg 39%
    13:00 +24°C° 0.1 mm 1 mps 640 mmHg 37%
    14:00 +23°C° 0.3 mm 1 mps 640 mmHg 40%
    15:00 +23°C° 0.3 mm 2 mps 639 mmHg 43%
    16:00 +21°C° 0.3 mm 2 mps 639 mmHg 46%
    17:00 +21°C° 0.8 mm 1 mps 639 mmHg 57%
    18:00 +19°C° 0.8 mm 1 mps 638 mmHg 68%
    19:00 +16°C° 0.8 mm 1 mps 638 mmHg 78%
    20:00 +15°C° 0.6 mm 1 mps 638 mmHg 79%
    21:00 +14°C° 0.6 mm 1 mps 638 mmHg 80%
    22:00 +13°C° 0.6 mm 1 mps 638 mmHg 82%
    23:00 +13°C° 0 mm 1 mps 638 mmHg 80%

    27 May, Sunday

    Time Temperature Precipitation Wind Pressure Humidity
    00:00 +13°C° 0 mm 1 mps 638 mmHg 79%
    01:00 +12°C° 0 mm 1 mps 637 mmHg 78%
    02:00 +12°C° 0 mm 1 mps 637 mmHg 77%
    03:00 +12°C° 0 mm 1 mps 637 mmHg 77%
    04:00 +11°C° 0 mm 1 mps 636 mmHg 76%
    05:00 +13°C° 0 mm 1 mps 637 mmHg 72%
    06:00 +14°C° 0 mm 1 mps 638 mmHg 68%
    07:00 +16°C° 0 mm 1 mps 638 mmHg 64%
    08:00 +19°C° 0 mm 1 mps 639 mmHg 56%
    09:00 +21°C° 0 mm 1 mps 639 mmHg 48%
    10:00 +22°C° 0 mm 1 mps 640 mmHg 41%
    11:00 +23°C° 0.1 mm 1 mps 640 mmHg 39%
    12:00 +24°C° 0.1 mm 1 mps 640 mmHg 38%
    13:00 +24°C° 0.1 mm 1 mps 640 mmHg 36%
    14:00 +24°C° 0.2 mm 1 mps 639 mmHg 40%
    15:00 +23°C° 0.2 mm 1 mps 639 mmHg 44%
    16:00 +23°C° 0.2 mm 1 mps 639 mmHg 48%
    17:00 +21°C° 0.9 mm 1 mps 638 mmHg 58%
    18:00 +20°C° 0.9 mm 1 mps 638 mmHg 67%
    19:00 +18°C° 0.9 mm 1 mps 638 mmHg 77%
    20:00 +16°C° 0.4 mm 1 mps 637 mmHg 78%
    21:00 +15°C° 0.4 mm 1 mps 637 mmHg 80%
    22:00 +14°C° 0.4 mm 2 mps 637 mmHg 81%
    23:00 +14°C° 0 mm 2 mps 637 mmHg 81%

    28 May, Monday

    Time Temperature Precipitation Wind Pressure Humidity
    00:00 +13°C° 0 mm 2 mps 637 mmHg 81%
    01:00 +13°C° 0 mm 2 mps 636 mmHg 80%
    02:00 +13°C° 0 mm 2 mps 636 mmHg 79%
    03:00 +13°C° 0 mm 2 mps 636 mmHg 77%
    04:00 +13°C° 0 mm 2 mps 636 mmHg 75%
    05:00 +14°C° 0 mm 2 mps 637 mmHg 72%
    06:00 +15°C° 0 mm 2 mps 637 mmHg 70%
    07:00 +16°C° 0 mm 2 mps 638 mmHg 67%
    08:00 +18°C° 0 mm 2 mps 638 mmHg 59%
    09:00 +20°C° 0 mm 2 mps 639 mmHg 51%
    10:00 +23°C° 0 mm 2 mps 639 mmHg 43%
    11:00 +24°C° 0 mm 2 mps 639 mmHg 41%
    12:00 +24°C° 0 mm 2 mps 639 mmHg 39%
    13:00 +25°C° 0 mm 2 mps 639 mmHg 37%
    14:00 +25°C° 0.1 mm 2 mps 639 mmHg 40%
    15:00 +24°C° 0.1 mm 2 mps 639 mmHg 43%
    16:00 +24°C° 0.1 mm 2 mps 638 mmHg 45%
    17:00 +21°C° 0.1 mm 2 mps 638 mmHg 54%
    18:00 +20°C° 0.1 mm 2 mps 637 mmHg 62%
    19:00 +19°C° 0.1 mm 2 mps 637 mmHg 70%
    20:00 +17°C° 0.2 mm 2 mps 637 mmHg 75%
    21:00 +16°C° 0.2 mm 2 mps 637 mmHg 80%
    22:00 +14°C° 0.2 mm 2 mps 636 mmHg 85%
    23:00 +14°C° 0 mm 2 mps 636 mmHg 86%

    29 May, Tuesday

    Time Temperature Precipitation Wind Pressure Humidity
    00:00 +13°C° 0 mm 2 mps 636 mmHg 86%
    01:00 +13°C° 0 mm 2 mps 636 mmHg 86%
    02:00 +13°C° 0.1 mm 2 mps 636 mmHg 86%
    03:00 +12°C° 0.1 mm 2 mps 636 mmHg 86%
    04:00 +12°C° 0.1 mm 2 mps 636 mmHg 86%
    05:00 +13°C° 0.1 mm 1 mps 637 mmHg 80%
    06:00 +15°C° 0.1 mm 1 mps 637 mmHg 74%
    07:00 +16°C° 0.1 mm 1 mps 638 mmHg 69%
    08:00 +19°C° 0 mm 1 mps 638 mmHg 62%
    09:00 +21°C° 0 mm 1 mps 639 mmHg 54%
    10:00 +23°C° 0 mm 1 mps 639 mmHg 47%
    11:00 +23°C° 0.3 mm 1 mps 639 mmHg 47%
    12:00 +24°C° 0.3 mm 1 mps 639 mmHg 47%
    13:00 +24°C° 0.3 mm 2 mps 639 mmHg 47%
    14:00 +23°C° 1.5 mm 2 mps 638 mmHg 53%
    15:00 +23°C° 1.5 mm 2 mps 638 mmHg 59%
    16:00 +22°C° 1.5 mm 1 mps 637 mmHg 64%
    17:00 +20°C° 1.6 mm 1 mps 637 mmHg 72%
    18:00 +19°C° 1.6 mm 1 mps 637 mmHg 80%
    19:00 +18°C° 1.6 mm 1 mps 636 mmHg 87%
    20:00 +16°C° 0.7 mm 1 mps 636 mmHg 88%
    21:00 +15°C° 0.7 mm 1 mps 636 mmHg 89%
    22:00 +14°C° 0.7 mm 1 mps 636 mmHg 90%
    23:00 +14°C° 0.2 mm 1 mps 636 mmHg 90%
    Show more